カタログに戻る

HAPS R/B

運用中LEO
NORAD 37229·ROCKET BODY·🇺🇸 United States

打ち上げ Nov 20, 2010 から Kodiak Launch Complex

Loading…

次のパス (今後24時間)

TLE

古いSource: Mike McCants

元期: Sep 5, 2026, 22:36 UTC

1 37229U 10062H   26248.94195371 0.00000000  00000-0  00000-0 0    06
2 37229  72.0091 292.4481 0139516 202.1752 157.8248 12.86687943    07

AllMySatでHAPS R/Bをリアルタイム追跡

Download on the App Store